Location: Noyers
(47.2770°N, 1.4032°E)
Time: 03:23:21
(UTC+00:00)

Cosmos 1536 - Pass Details

Date: 15 May 2026
Orbit: 482 x 500 km, 82.5° (Epoch: 8 June)

Event Time Altitude Azimuth Distance (km) Brightness Sun altitude
Rises 23:06:18 0° 340° (NNW) 2,570 7.7 -22.9°
Reaches altitude 10° 23:08:36 10° 329° (NNW) 1,687 6.3 -23.0°
Enters shadow 23:11:43 28° 272° (W) 940 4.0 -23.1°
